Temperature
11 9 8 7 7 6 6 5 5 5 4 3 3 2 2 1 1 0 -1 -1 -2 -2 -3 -3 -4 -5 -6 -6 -7 -7 -8 -8 -8 -9 -9 -8 -8 -8 -8 -9 -9 -9 -9
10 9 8 8 7 7 6 6 5 5 4 3 3 2 2 1 1 -0 -1 -1 -2 -3 -3 -4 -5 -5 -6 -7 -7 -8 -8 -8 -9 -10 -10 -10 -10 -9 -9 -9 -9 -9 -9
12 11 9 8 8 7 7 6 6 5 4 3 3 2 2 1 0 -0 -1 -2 -2 -3 -4 -4 -5 -6 -7 -7 -8 -8 -9 -9 -9 -10 -11 -11 -11 -11 -10 -9 -9 -10 -10
12 12 11 10 9 9 8 7 6 5 4 3 3 2 2 1 0 -0 -1 -2 -3 -3 -4 -5 -5 -6 -7 -7 -8 -8 -9 -9 -10 -10 -10 -11 -11 -11 -11 -10 -10 -10 -10
14 13 12 12 11 9 8 7 6 5 4 3 3 2 1 1 0 -0 -1 -2 -3 -3 -4 -5 -6 -6 -7 -7 -8 -8 -9 -9 -10 -10 -10 -10 -11 -11 -11 -11 -11 -10 -10
15 14 13 12 11 10 8 7 6 5 4 3 3 2 1 1 0 -1 -1 -2 -3 -3 -4 -5 -6 -6 -7 -8 -8 -8 -9 -9 -10 -10 -10 -10 -11 -11 -11 -11 -11 -11 -10
16 14 13 12 11 10 9 8 6 5 4 3 3 2 1 1 -0 -1 -1 -2 -3 -3 -4 -5 -6 -6 -7 -8 -8 -9 -9 -9 -9 -10 -10 -10 -10 -11 -11 -11 -11 -11 -11
16 15 14 13 12 11 10 8 7 6 4 3 3 2 1 0 -0 -1 -1 -2 -3 -4 -4 -5 -6 -6 -7 -8 -8 -9 -9 -9 -9 -10 -10 -10 -10 -10 -11 -11 -11 -11 -11
16 16 15 14 12 11 10 9 7 6 5 4 3 2 1 0 -0 -1 -2 -2 -3 -4 -4 -5 -6 -6 -7 -8 -8 -9 -9 -9 -9 -10 -10 -10 -10 -10 -10 -11 -11 -11 -11
16 15 15 14 13 11 10 8 7 6 5 3 3 2 1 0 -0 -1 -2 -2 -3 -4 -5 -5 -6 -6 -7 -8 -8 -8 -9 -9 -9 -9 -10 -10 -10 -10 -10 -10 -11 -11 -11
17 16 15 14 13 11 10 8 7 5 4 3 2 2 1 0 -1 -1 -2 -2 -3 -4 -5 -5 -6 -6 -7 -7 -8 -8 -9 -9 -9 -9 -9 -10 -10 -10 -10 -10 -10 -11 -11
17 16 15 14 12 11 10 8 7 5 4 3 2 2 1 -0 -1 -1 -2 -3 -3 -4 -5 -5 -6 -6 -7 -7 -8 -8 -9 -9 -9 -9 -9 -9 -10 -10 -10 -10 -10 -11 -11
16 16 15 14 13 11 10 8 7 6 4 3 2 1 1 -0 -1 -1 -2 -3 -3 -4 -4 -5 -6 -6 -7 -7 -8 -8 -8 -9 -9 -9 -9 -9 -10 -10 -10 -10 -10 -11 -11
16 15 15 14 13 12 10 9 7 6 4 3 2 1 1 -0 -1 -1 -2 -3 -3 -4 -4 -5 -6 -6 -7 -7 -7 -8 -8 -9 -9 -9 -9 -9 -9 -10 -10 -10 -10 -10 -11
16 16 15 14 13 12 10 9 7 5 4 3 2 2 1 -0 -1 -2 -2 -3 -3 -4 -4 -5 -5 -6 -7 -7 -7 -8 -9 -9 -9 -9 -9 -9 -9 -10 -10 -10 -10 -10 -11
16 16 15 14 13 12 11 9 8 6 4 3 2 2 0 -0 -1 -2 -2 -3 -3 -4 -4 -5 -5 -6 -6 -7 -8 -9 -8 -9 -9 -9 -9 -9 -9 -9 -10 -10 -10 -10 -11
16 16 15 15 14 13 11 10 9 6 4 3 2 1 0 -0 -1 -2 -2 -3 -3 -4 -4 -5 -5 -6 -6 -7 -8 -8 -8 -9 -9 -9 -9 -9 -9 -9 -10 -10 -10 -10 -11
17 16 15 15 14 13 11 10 8 6 5 3 2 1 0 -0 -1 -2 -2 -3 -3 -4 -4 -5 -5 -6 -6 -7 -8 -8 -9 -9 -9 -9 -9 -9 -10 -9 -9 -10 -10 -10 -11
16 15 15 14 13 12 11 10 8 6 4 3 2 1 0 -0 -1 -1 -2 -3 -3 -4 -4 -5 -5 -6 -6 -7 -7 -8 -9 -9 -9 -9 -9 -10 -10 -9 -9 -10 -10 -10 -11
16 15 14 13 13 12 11 9 8 6 5 4 3 2 1 -0 -1 -1 -2 -3 -3 -4 -4 -5 -5 -6 -6 -7 -7 -9 -9 -9 -9 -9 -9 -10 -10 -10 -9 -10 -10 -11 -11
15 15 14 13 12 11 10 9 8 7 6 5 3 1 0 -0 -1 -2 -2 -3 -3 -4 -4 -5 -5 -6 -6 -7 -7 -8 -9 -9 -9 -10 -10 -10 -10 -10 -10 -10 -11 -11 -11
14 14 13 13 12 11 10 9 8 8 6 4 2 1 0 -0 -1 -2 -2 -3 -3 -4 -4 -5 -5 -6 -6 -7 -8 -8 -9 -9 -10 -10 -10 -10 -10 -10 -10 -11 -11 -11 -11
14 13 13 12 11 10 9 9 8 7 5 3 2 1 0 -1 -1 -2 -2 -3 -3 -4 -4 -5 -5 -6 -6 -7 -8 -8 -9 -9 -10 -10 -10 -10 -10 -11 -11 -11 -11 -12 -12
13 12 12 11 11 10 9 8 7 6 4 3 2 1 0 -1 -1 -2 -2 -3 -3 -4 -4 -5 -5 -6 -7 -7 -8 -8 -9 -10 -10 -10 -10 -10 -10 -11 -11 -11 -11 -12 -12
12 11 11 11 11 10 9 8 6 5 4 3 2 1 0 -1 -1 -2 -2 -2 -3 -4 -4 -5 -6 -6 -7 -7 -8 -9 -9 -10 -10 -10 -10 -10 -10 -10 -11 -11 -11 -12 -12
11 11 11 10 10 9 8 7 6 5 3 2 1 1 -0 -1 -1 -2 -2 -3 -3 -4 -5 -5 -6 -7 -7 -8 -9 -9 -10 -10 -10 -10 -10 -10 -11 -11 -11 -11 -12 -12 -12
Wind_Speed
15 12 14 14 14 14 13 13 11 9 7 4 3 2 2 3 4 5 5 5 5 6 7 6 7 8 5 5 6 5 7 7 6 7 11 11 9 9 8 10 11 15 20
13 13 14 15 17 17 16 14 13 12 9 6 4 3 3 3 5 5 5 5 6 7 6 6 7 7 5 5 6 6 5 6 6 6 11 10 11 9 11 9 10 11 14
19 17 18 18 18 18 18 16 15 13 10 9 5 2 1 1 2 3 3 6 7 7 8 8 8 8 5 5 6 6 6 8 8 4 5 8 10 15 10 10 10 9 9
18 17 18 19 20 20 16 15 14 13 11 10 7 7 5 5 5 4 3 6 7 8 9 9 9 8 7 5 6 6 6 7 9 7 5 7 10 12 13 10 7 9 11
18 18 20 21 19 17 16 14 14 13 11 10 10 8 7 6 4 4 5 5 7 9 10 10 10 9 8 8 8 7 7 6 8 9 8 9 9 10 11 15 14 11 9
16 16 15 14 14 14 14 14 15 13 12 12 11 10 9 8 6 6 5 5 4 6 9 10 10 10 10 9 9 8 8 8 9 8 8 9 10 11 10 13 15 15 13
13 13 14 15 16 17 17 16 16 14 13 12 12 11 11 9 9 8 7 6 5 4 6 9 9 10 11 12 12 7 8 8 9 9 8 9 9 10 10 12 14 16 14
11 13 16 17 18 19 19 18 18 15 14 13 12 10 10 8 7 8 7 7 6 6 9 11 11 12 13 12 11 7 8 7 8 11 10 9 9 9 9 10 11 14 13
11 13 13 15 17 19 20 20 19 15 15 14 12 11 10 9 9 8 7 6 6 7 10 10 10 11 12 12 10 7 9 8 9 9 10 9 9 8 9 9 9 9 14
11 11 12 15 16 17 16 16 17 17 14 13 12 11 10 10 9 8 8 8 7 9 8 8 8 9 10 10 8 8 9 9 10 9 10 10 9 8 9 9 9 9 10
14 14 13 13 13 12 14 16 16 14 13 14 12 11 10 9 9 8 9 8 7 8 7 8 8 8 9 8 8 9 10 10 11 11 10 12 11 9 9 9 9 9 9
12 12 12 11 13 15 15 17 16 15 15 13 12 11 10 9 9 9 9 7 8 8 8 8 8 9 10 9 9 11 11 10 12 12 12 13 11 11 10 9 10 9 8
10 9 10 13 15 16 17 17 16 16 14 13 12 11 10 10 10 9 8 8 8 8 8 8 9 10 10 10 10 11 11 12 12 13 13 14 12 13 12 11 10 9 9
10 11 12 14 15 16 17 17 17 15 14 13 13 13 12 11 10 9 8 8 8 8 8 9 9 10 10 10 11 11 12 12 13 13 13 13 13 14 14 12 11 9 9
11 13 15 15 15 15 16 16 16 15 15 14 14 14 12 10 9 9 8 8 8 9 8 8 9 9 9 9 11 11 12 12 12 12 12 13 16 19 16 13 10 8 7
14 14 15 15 16 18 18 17 17 16 15 16 15 13 11 10 10 9 8 8 8 8 8 8 9 10 10 16 21 17 9 10 10 11 11 12 15 18 21 22 19 14 10
15 14 15 17 18 18 18 19 18 15 16 16 14 13 12 12 11 10 8 9 8 8 8 9 9 10 12 19 20 21 12 8 9 10 10 11 12 16 11 16 18 16 18
15 14 13 14 15 15 15 15 13 15 16 16 15 14 13 12 10 9 9 9 7 7 8 8 9 9 12 18 19 20 10 7 8 9 10 11 12 13 14 10 9 9 10
14 13 12 12 11 13 14 14 15 15 16 17 17 15 14 13 11 11 11 8 7 8 8 7 8 9 11 16 18 18 7 7 9 9 9 10 11 19 20 9 7 7 8
11 11 9 8 10 12 13 16 17 17 20 19 17 15 14 13 13 12 10 7 7 8 7 7 7 8 9 14 16 17 6 7 8 7 8 14 16 19 17 6 5 8 8
12 10 8 10 12 11 14 17 18 21 20 15 13 13 14 13 12 10 8 7 7 7 7 7 7 8 9 12 15 16 7 7 7 7 7 8 18 18 16 11 6 10 8
13 10 9 12 9 11 16 18 21 18 13 13 14 14 13 12 10 9 9 7 7 7 7 7 7 6 7 9 12 15 15 13 7 7 7 9 17 16 15 11 12 14 11
13 10 11 11 9 13 17 20 18 13 14 15 15 13 13 12 10 10 9 7 7 6 6 6 6 6 5 7 13 15 16 16 9 7 12 15 16 14 10 12 14 10 5
12 10 9 11 13 14 18 18 12 14 16 16 15 13 13 12 11 9 8 8 7 7 7 6 6 6 5 6 6 7 8 10 9 7 9 12 13 10 10 10 8 5 6
11 9 10 14 15 13 16 15 13 16 17 16 15 14 13 12 11 10 9 9 8 8 7 7 6 5 6 8 11 8 5 5 5 5 3 4 6 6 5 5 5 5 5
11 10 11 14 14 12 14 14 15 17 17 16 15 13 11 11 10 9 8 13 12 13 14 12 9 7 9 12 12 12 12 12 11 6 4 5 5 6 6 6 6 6 6
Wind_Direction
220 202 195 186 180 179 178 177 174 173 161 157 167 189 231 251 266 264 251 258 282 296 297 296 301 303 297 294 301 305 310 308 306 311 315 305 285 279 286 290 292 295 297
219 206 196 190 188 187 185 182 181 178 175 171 169 178 195 229 243 249 254 265 281 292 296 292 288 291 290 296 301 304 299 305 319 311 318 315 312 303 307 290 288 289 292
221 211 202 198 195 194 190 188 185 181 178 172 160 160 166 267 261 249 252 264 279 287 291 291 286 284 277 281 290 291 287 304 307 278 286 304 306 312 299 294 292 286 287
223 215 207 203 202 200 191 187 183 180 178 172 172 176 193 213 224 225 237 266 275 282 287 285 282 277 275 271 282 299 285 288 303 301 264 266 286 299 307 306 290 287 291
222 218 211 208 204 195 189 186 181 182 180 179 180 184 203 214 226 235 250 259 269 275 279 280 276 271 272 272 276 283 281 278 285 295 297 296 295 286 296 304 307 305 296
222 221 212 201 196 187 186 183 183 187 184 184 185 190 202 212 224 238 247 253 255 266 272 275 269 269 270 271 273 273 275 277 278 283 287 292 298 301 300 299 303 304 304
215 212 203 197 193 188 189 187 187 191 189 189 193 197 202 207 217 228 235 243 250 255 259 267 264 267 270 273 273 270 273 275 277 279 283 284 285 288 291 295 301 302 302
214 212 207 200 195 192 190 190 192 194 191 194 198 200 201 205 216 222 224 232 239 247 257 260 262 266 271 276 274 270 270 276 275 282 283 285 284 285 285 287 297 304 304
221 216 207 200 195 193 194 193 193 195 195 197 196 200 203 207 216 223 225 233 239 253 257 258 262 267 269 270 270 268 271 274 274 277 280 281 283 284 282 281 283 288 302
232 222 211 204 200 198 195 192 194 197 195 194 197 204 205 209 215 220 229 235 242 251 258 260 262 266 268 268 264 268 268 270 274 275 277 279 282 283 282 282 281 276 282
231 224 216 207 199 191 191 194 196 196 195 197 199 202 203 207 212 220 230 236 241 246 250 255 260 264 266 264 265 267 270 270 275 277 278 280 281 283 285 284 280 279 280
234 223 211 198 195 196 196 198 198 199 200 197 196 202 204 205 214 225 233 234 241 246 250 255 262 267 270 266 265 271 276 270 273 276 276 278 282 280 282 281 279 280 279
241 223 207 204 204 203 201 201 201 202 198 193 196 201 205 208 218 226 231 234 241 248 254 255 262 267 269 270 268 267 270 269 269 270 272 274 276 278 280 278 276 276 285
240 224 217 215 212 207 204 202 203 200 195 194 197 204 209 211 216 222 228 234 240 248 255 258 262 266 269 270 271 270 269 268 268 268 268 270 271 272 276 277 271 274 279
244 230 226 222 215 210 207 205 203 199 195 195 202 209 208 207 212 220 228 235 241 251 254 262 268 270 272 271 268 266 266 264 268 271 271 272 279 284 285 285 277 273 272
252 242 233 225 218 213 209 205 204 199 193 198 205 205 201 205 212 219 226 234 243 252 257 262 267 272 278 289 295 294 275 270 274 279 279 279 284 289 295 296 296 294 287
261 250 237 228 222 215 207 205 203 193 192 200 203 200 201 207 213 219 224 233 242 249 256 262 265 269 278 293 298 300 299 279 281 282 285 290 289 297 288 286 291 293 295
264 257 243 232 225 213 206 201 190 188 194 200 202 201 201 209 210 214 226 234 237 244 253 260 265 271 282 297 302 305 305 286 282 279 279 281 283 287 288 275 272 270 278
259 256 244 232 219 208 197 187 189 191 196 202 204 202 201 205 207 216 225 229 233 244 249 256 263 270 283 299 304 307 291 286 286 281 281 286 281 292 301 297 284 283 280
262 261 252 227 216 207 185 187 194 196 204 206 204 199 198 202 208 215 221 222 228 243 251 259 260 265 274 293 305 310 292 290 291 285 284 298 302 305 313 301 280 285 283
271 264 244 229 222 196 182 195 199 207 208 199 194 194 197 202 207 210 214 219 230 242 250 260 265 265 272 292 305 309 306 294 296 298 294 295 309 316 321 323 300 299 313
274 259 243 242 222 188 189 202 211 210 191 184 190 195 197 200 204 206 212 215 222 238 251 260 272 264 269 287 298 308 312 313 303 299 295 297 313 323 326 324 319 324 331
274 258 242 245 225 199 198 210 214 190 179 184 193 195 195 198 199 201 208 213 217 230 247 251 266 274 268 278 299 307 313 316 314 299 310 319 326 330 328 323 327 335 326
275 263 245 242 237 215 211 217 200 178 182 189 193 192 194 198 200 203 206 211 216 224 237 246 256 267 272 274 280 281 292 302 306 304 314 324 329 328 324 325 326 319 306
277 260 243 244 243 224 217 212 189 178 186 191 193 192 195 197 200 205 208 211 215 215 222 230 236 248 264 276 296 305 293 295 298 316 315 317 321 324 319 317 312 307 311
283 272 256 250 248 228 219 207 191 185 186 191 194 194 194 195 197 201 213 226 225 236 242 244 245 249 266 289 304 312 318 324 329 337 321 318 318 320 319 318 315 312 312
Height
1548 1551 1552 1553 1554 1555 1555 1556 1558 1559 1559 1559 1558 1556 1554 1552 1550 1547 1545 1542 1539 1536 1533 1530 1526 1523 1520 1516 1512 1509 1505 1501 1497 1492 1485 1480 1476 1472 1468 1463 1459 1454 1449
1543 1544 1546 1547 1547 1547 1549 1550 1551 1553 1553 1553 1553 1551 1550 1548 1546 1543 1541 1538 1535 1532 1529 1526 1523 1519 1516 1512 1509 1505 1501 1497 1495 1490 1483 1475 1469 1465 1462 1457 1452 1447 1443
1535 1536 1538 1539 1540 1540 1541 1543 1545 1546 1547 1548 1547 1546 1544 1543 1541 1539 1536 1534 1531 1528 1525 1522 1519 1515 1512 1509 1505 1502 1498 1494 1490 1488 1485 1478 1468 1460 1453 1450 1445 1441 1436
1528 1529 1530 1531 1531 1532 1535 1537 1539 1540 1541 1542 1541 1540 1539 1538 1536 1534 1532 1529 1527 1524 1521 1518 1515 1511 1508 1505 1501 1498 1495 1491 1486 1483 1480 1476 1470 1462 1450 1443 1439 1435 1430
1521 1522 1522 1523 1525 1527 1528 1530 1532 1533 1534 1535 1535 1534 1533 1532 1531 1529 1527 1525 1522 1519 1516 1513 1510 1507 1504 1500 1497 1494 1491 1487 1483 1478 1474 1469 1464 1459 1452 1442 1433 1428 1424
1514 1515 1517 1518 1519 1520 1522 1523 1525 1526 1527 1528 1528 1528 1527 1527 1525 1523 1522 1520 1517 1515 1512 1509 1505 1502 1499 1496 1492 1489 1485 1482 1478 1474 1469 1465 1459 1453 1448 1440 1431 1424 1417
1509 1510 1510 1511 1511 1512 1513 1515 1517 1518 1520 1521 1522 1522 1521 1520 1519 1518 1516 1514 1512 1509 1507 1503 1500 1497 1494 1490 1487 1484 1480 1477 1473 1469 1464 1459 1455 1449 1444 1437 1429 1421 1413
1503 1504 1504 1504 1505 1505 1506 1508 1509 1511 1513 1514 1515 1515 1515 1514 1513 1512 1510 1508 1506 1503 1501 1498 1495 1492 1488 1485 1482 1478 1475 1471 1467 1463 1459 1454 1449 1444 1439 1434 1427 1418 1409
1498 1498 1498 1498 1498 1499 1499 1501 1503 1504 1506 1507 1508 1508 1508 1508 1507 1506 1504 1502 1500 1498 1495 1492 1489 1486 1483 1480 1476 1472 1469 1465 1461 1457 1453 1448 1443 1439 1434 1429 1424 1419 1409
1493 1493 1492 1492 1492 1493 1494 1495 1496 1498 1499 1501 1501 1501 1502 1501 1501 1500 1498 1496 1494 1492 1489 1486 1483 1480 1477 1474 1470 1466 1463 1459 1455 1451 1447 1442 1437 1433 1428 1424 1419 1414 1409
1487 1487 1486 1486 1486 1487 1487 1488 1489 1490 1492 1493 1494 1494 1495 1495 1494 1493 1492 1490 1488 1486 1483 1480 1477 1474 1471 1468 1464 1460 1457 1453 1449 1445 1441 1436 1432 1427 1422 1418 1413 1409 1404
1482 1481 1481 1480 1479 1479 1479 1480 1481 1482 1484 1486 1487 1487 1488 1488 1488 1487 1486 1484 1482 1480 1477 1474 1471 1468 1465 1461 1458 1454 1451 1447 1443 1439 1434 1430 1425 1421 1416 1411 1407 1403 1398
1477 1475 1474 1473 1472 1471 1472 1472 1473 1475 1477 1478 1479 1480 1481 1481 1481 1480 1480 1478 1476 1474 1471 1469 1465 1462 1459 1455 1452 1448 1444 1440 1437 1432 1428 1423 1419 1413 1409 1405 1400 1396 1392
1470 1469 1467 1465 1464 1464 1464 1464 1465 1467 1469 1470 1471 1472 1473 1474 1474 1474 1473 1472 1470 1468 1465 1463 1460 1456 1453 1449 1445 1442 1438 1434 1430 1426 1422 1417 1412 1407 1402 1398 1394 1389 1385
1464 1462 1460 1458 1457 1456 1455 1455 1457 1459 1461 1462 1463 1464 1466 1467 1467 1467 1467 1465 1464 1462 1459 1457 1454 1450 1447 1443 1439 1435 1432 1428 1423 1419 1415 1410 1406 1401 1397 1392 1387 1383 1379
1457 1455 1453 1451 1449 1447 1447 1447 1448 1450 1452 1453 1454 1457 1459 1459 1460 1460 1460 1459 1458 1456 1453 1451 1447 1444 1440 1437 1433 1430 1426 1422 1417 1413 1408 1404 1399 1394 1390 1386 1383 1379 1375
1451 1448 1446 1443 1441 1439 1439 1438 1439 1441 1443 1444 1446 1449 1450 1451 1453 1453 1453 1452 1451 1450 1447 1445 1441 1438 1434 1431 1427 1424 1421 1416 1411 1407 1402 1397 1393 1388 1383 1379 1375 1372 1369
1446 1443 1439 1436 1434 1432 1431 1431 1432 1433 1434 1436 1438 1440 1442 1444 1446 1446 1446 1446 1445 1443 1441 1438 1435 1432 1429 1425 1421 1418 1415 1410 1406 1401 1396 1391 1386 1382 1377 1372 1368 1365 1362
1441 1437 1434 1430 1427 1425 1423 1423 1423 1423 1425 1426 1429 1432 1434 1436 1438 1439 1439 1439 1438 1437 1435 1432 1429 1426 1423 1419 1416 1412 1408 1403 1399 1395 1391 1386 1381 1377 1373 1368 1363 1360 1357
1435 1431 1427 1423 1420 1417 1416 1414 1413 1414 1414 1417 1420 1424 1426 1429 1430 1432 1433 1433 1432 1430 1429 1426 1424 1420 1417 1414 1410 1407 1402 1398 1393 1389 1385 1381 1376 1372 1368 1363 1359 1355 1351
1427 1423 1418 1414 1411 1409 1407 1405 1405 1404 1407 1411 1414 1417 1419 1421 1423 1425 1426 1426 1425 1424 1423 1421 1418 1415 1412 1408 1405 1401 1398 1393 1388 1384 1379 1375 1371 1368 1363 1359 1355 1351 1347
1419 1414 1409 1405 1402 1400 1398 1396 1395 1397 1401 1403 1406 1409 1412 1414 1416 1418 1419 1419 1419 1418 1416 1415 1413 1410 1407 1403 1399 1396 1393 1389 1385 1379 1375 1371 1367 1363 1359 1355 1351 1347 1343
1410 1405 1400 1396 1393 1390 1388 1386 1386 1390 1391 1394 1397 1400 1404 1406 1409 1410 1412 1412 1412 1412 1410 1409 1406 1404 1402 1398 1395 1391 1388 1384 1380 1375 1371 1367 1363 1358 1354 1351 1347 1343 1339
1401 1396 1391 1386 1382 1380 1378 1377 1379 1380 1382 1385 1388 1392 1395 1398 1401 1403 1404 1405 1406 1405 1404 1403 1401 1399 1396 1393 1390 1386 1383 1379 1375 1371 1367 1363 1359 1355 1351 1347 1343 1339 1336
1392 1387 1382 1377 1373 1370 1368 1368 1369 1371 1373 1376 1380 1383 1386 1390 1393 1395 1397 1398 1399 1399 1398 1397 1395 1393 1391 1388 1386 1383 1379 1375 1371 1367 1363 1359 1355 1351 1347 1344 1340 1337 1333
1383 1378 1373 1368 1364 1361 1359 1359 1360 1361 1363 1366 1370 1374 1377 1381 1384 1387 1389 1391 1392 1393 1392 1391 1390 1388 1386 1384 1381 1378 1375 1371 1367 1363 1359 1355 1352 1348 1345 1341 1337 1334 1330